Weather in Sovetskoye

Russia / Saratov Oblast     51°26′38″N   46°44′17″E
temp.,
°C
wind,
m/s
gust,
m/s
humid.,
%
clouds,
%
prec.,
mm/h
press.,
hPa
HPBL,
m
15 may, sat
sat1501:00+20sse6164498 0.0 1018271
04:00+18sse5134384 0.0 1018181
07:00+18sse410506 0.0 1018198
10:00+25sse610305 0.0 1018483
13:00+30s8112394 0.0 10181209
16:00+31s7102410 0.0 10172204
19:00+27se48375 0.0 1017142
22:00+21se512425 0.0 1016158
16 may, sun
sun1601:00+19sse5125138 0.0 1016178
04:00+18s48515 0.0 1017116
07:00+19sse485478 0.0 1017153
10:00+26s45345 0.0 1018478
13:00+30sse572530 0.0 10171661
16:00+31s6925100 0.0 10163158
19:00+28s2238100 0.0 101517
22:00+23se3343100 0.0 101624
17 may, mon
mon1701:00+20sse4652100 0.0 101688
04:00+19sse3337100 0.0 101625
07:00+19se3847100 0.0 1017167
10:00+26se583190 0.0 1017530
13:00+31sse782073 0.0 10172726
16:00+30sse6820100 0.0 10163053
19:00+26se493655 0.0 1016191
22:00+21ese41040100 0.0 1016123
18 may, tue
tue1801:00+19ese51241100 0.0 1015167
04:00+18se512465 0.0 1015170
07:00+19ese310515 0.0 1015212
10:00+27se610315 0.0 1014534
13:00+31sse8112031 0.0 10143312
16:00+32se710217 0.0 10133615
19:00+27ese463496 0.0 101297
22:00+23ese6163961 0.0 1012266
19 may, wed
wed1901:00+22ese617365 0.0 1012329
04:00+20ese616385 0.0 1012284
07:00+21se616475 0.0 1012394
10:00+28se813335 0.0 1011824
13:00+31sse9122797 0.0 10102790
16:00+29ssw6932100 0.0 1010817
19:00+26wsw484284 0.0 1009237
22:00+20w36677 0.0 101193